Calera, OK

5:31 AM CST on February 22, 2017 (GMT -0600)
Eaker

Weather History for KDUA - September, 2012

Change the Weather History Date:

Sunday, September 30, 2012

  Actual Average (KMLC) Record (KMLC)
Temperature  
Mean Temperature 66 °F -  
Max Temperature 73 °F 80 °F 95 °F (1998)
Min Temperature 60 °F 55 °F 34 °F (1984)
Cooling Degree Days 2    
Growing Degree Days 16 (Base 50)    
Moisture  
Dew Point 60 °F    
Average Humidity 86    
Maximum Humidity 100    
Minimum Humidity 50    
Precipitation  
Precipitation 0.39 in - - ()
Sea Level Pressure  
Sea Level Pressure 29.89 in    
Wind  
Wind Speed 7 mph (NNE)    
Max Wind Speed 13 mph    
Max Gust Speed 18 mph    
Visibility 9 miles    
Events Rain    
Averages and records for this station are not official NWS values.
T = Trace of Precipitation, MM = Missing Value Source: NWS Daily Summary

Daily Weather History Graph

Daily Weather History Graph

Search for Another Location

Airport or City:

Trip Planner

Search our weather history database for the weather conditions in past years. The results will help you decide how hot, cold, wet, or windy it might be!

Date:

Astronomy

Sep. 30, 2012 Rise Set
Actual Time 7:19 AM CDT 7:10 PM CDT
Civil Twilight 6:54 AM CDT 7:35 PM CDT
Nautical Twilight 6:25 AM CDT 8:04 PM CDT
Astronomical Twilight 5:56 AM CDT 8:33 PM CDT
Moon 7:20 PM CDT (9/30) 7:47 AM CDT (9/30)
Length of Visible Light 12h 40m
Length of Day
11h 50m
Full, 100% of the Moon is Illuminated
Sep 30
Full
Oct 8
Last Quarter
Oct 15
New
Oct 21
First Quarter
Oct 29
Full

Hourly Weather History & Observations

Time (CDT) Temp. Dew Point Humidity Pressure Visibility Wind Dir Wind Speed Gust Speed Precip Events Conditions
12:15 AM 64.4 °F 64.4 °F 100% 29.94 in 7.0 mi Calm Calm - N/A Rain Rain
12:55 AM 64.4 °F 64.4 °F 100% 29.92 in 5.0 mi NNE 4.6 mph - 0.02 in Rain Light Rain
1:15 AM 64.4 °F 64.4 °F 100% 29.92 in 5.0 mi Calm Calm - N/A Rain Rain
1:35 AM 64.4 °F 64.4 °F 100% 29.92 in 5.0 mi NNE 6.9 mph - 0.01 in Rain Light Rain
1:55 AM 64.4 °F 64.4 °F 100% 29.92 in 5.0 mi NNE 6.9 mph - 0.02 in   Drizzle
2:15 AM 64.4 °F 64.4 °F 100% 29.92 in 7.0 mi North 8.1 mph - N/A   Light Drizzle
2:35 AM 64.4 °F 64.4 °F 100% 29.91 in 7.0 mi NNE 6.9 mph - N/A   Drizzle
2:55 AM 64.4 °F 64.4 °F 100% 29.91 in 5.0 mi NW 6.9 mph - N/A   Drizzle
3:15 AM 64.4 °F 64.4 °F 100% 29.90 in 5.0 mi North 5.8 mph - 0.01 in Rain Rain
3:35 AM 64.4 °F 64.4 °F 100% 29.89 in 5.0 mi NW 8.1 mph - 0.03 in Rain Light Rain
3:55 AM 64.4 °F 64.4 °F 100% 29.89 in 5.0 mi North 9.2 mph - 0.05 in Rain Light Rain
4:15 AM 64.4 °F 64.4 °F 100% 29.89 in 7.0 mi NNE 9.2 mph - 0.01 in Rain Light Rain
4:35 AM 64.4 °F 64.4 °F 100% 29.89 in 7.0 mi NNE 10.4 mph - 0.02 in Rain Light Rain
4:55 AM 64.4 °F 64.4 °F 100% 29.88 in 5.0 mi North 10.4 mph - 0.04 in Rain Rain
5:35 AM 64.4 °F 62.6 °F 94% 29.88 in 5.0 mi NNE 10.4 mph - 0.07 in Rain Light Rain
5:55 AM 64.4 °F 62.6 °F 94% 29.88 in 10.0 mi North 9.2 mph - 0.08 in Rain Light Rain
6:15 AM 64.4 °F 62.6 °F 94% 29.88 in 10.0 mi North 8.1 mph - N/A   Light Drizzle
6:35 AM 64.4 °F 62.6 °F 94% 29.88 in 10.0 mi North 8.1 mph - N/A   Light Drizzle
6:55 AM 64.4 °F 62.6 °F 94% 29.88 in 10.0 mi North 8.1 mph - N/A   Overcast
7:15 AM 64.4 °F 62.6 °F 94% 29.89 in 10.0 mi NE 8.1 mph - N/A   Overcast
7:35 AM 64.4 °F 62.6 °F 94% 29.89 in 7.0 mi NNE 12.7 mph - 0.01 in Rain Light Rain
7:55 AM 62.6 °F 62.6 °F 100% 29.89 in 5.0 mi NE 11.5 mph - 0.05 in Rain Rain
8:15 AM 62.6 °F 62.6 °F 100% 29.90 in 5.0 mi NE 10.4 mph - 0.03 in Rain Light Rain
8:35 AM 64.4 °F 62.6 °F 94% 29.91 in 7.0 mi NE 11.5 mph - 0.04 in Rain Rain
8:55 AM 62.6 °F 60.8 °F 94% 29.92 in 10.0 mi NE 11.5 mph - 0.05 in Rain Rain
9:15 AM 60.8 °F 60.8 °F 100% 29.92 in 10.0 mi NE 12.7 mph - 0.01 in Rain Light Rain
9:35 AM 60.8 °F 59.0 °F 94% 29.93 in 7.0 mi NE 9.2 mph - 0.03 in Rain Rain
9:55 AM 60.8 °F 59.0 °F 94% 29.93 in 10.0 mi NNE 11.5 mph - 0.04 in Rain Light Rain
10:15 AM 60.8 °F 59.0 °F 94% 29.94 in 10.0 mi NNE 9.2 mph - 0.01 in Rain Rain
10:35 AM 60.8 °F 60.8 °F 100% 29.94 in 10.0 mi NNE 8.1 mph - 0.01 in Rain Light Rain
10:55 AM 62.6 °F 60.8 °F 94% 29.94 in 7.0 mi NNE 8.1 mph - 0.02 in Rain Light Rain
11:15 AM 62.6 °F 60.8 °F 94% 29.94 in 7.0 mi North 8.1 mph - 0.01 in Rain Light Rain
11:35 AM 62.6 °F 60.8 °F 94% 29.93 in 10.0 mi NNE 8.1 mph - 0.01 in   Light Drizzle
11:55 AM 62.6 °F 60.8 °F 94% 29.93 in 10.0 mi NNE 11.5 mph - 0.01 in   Overcast
12:15 PM 64.4 °F 59.0 °F 83% 29.93 in 10.0 mi NNE 11.5 mph - N/A   Overcast
12:35 PM 64.4 °F 59.0 °F 83% 29.93 in 10.0 mi NNE 11.5 mph 16.1 mph N/A   Overcast
12:55 PM 64.4 °F 59.0 °F 83% 29.92 in 10.0 mi NE 11.5 mph - 0.01 in   Overcast
1:15 PM 66.2 °F 57.2 °F 73% 29.92 in 10.0 mi NE 10.4 mph - N/A   Mostly Cloudy
1:35 PM 68.0 °F 55.4 °F 64% 29.91 in 10.0 mi NE 12.7 mph - N/A   Mostly Cloudy
2:15 PM 68.0 °F 55.4 °F 64% 29.90 in 10.0 mi NNE 9.2 mph - N/A   Overcast
2:35 PM 68.0 °F 55.4 °F 64% 29.89 in 10.0 mi NE 11.5 mph - N/A   Overcast
2:55 PM 69.8 °F 55.4 °F 60% 29.89 in 10.0 mi NNE 8.1 mph - N/A   Overcast
3:15 PM 69.8 °F 55.4 °F 60% 29.88 in 10.0 mi NE 9.2 mph - N/A   Scattered Clouds
3:35 PM 71.6 °F 55.4 °F 57% 29.87 in 10.0 mi ENE 9.2 mph 17.3 mph N/A   Scattered Clouds
3:55 PM 73.4 °F 53.6 °F 50% 29.87 in 10.0 mi NE 10.4 mph - N/A   Clear
4:15 PM 73.4 °F 55.4 °F 53% 29.87 in 10.0 mi NNW 11.5 mph - N/A   Clear
4:35 PM 71.6 °F 53.6 °F 53% 29.87 in 10.0 mi NE 11.5 mph 18.4 mph N/A   Clear
4:55 PM 71.6 °F 53.6 °F 53% 29.87 in 10.0 mi North 6.9 mph 16.1 mph N/A   Clear
5:15 PM 71.6 °F 55.4 °F 57% 29.87 in 10.0 mi NNE 9.2 mph - N/A   Clear
5:35 PM 71.6 °F 55.4 °F 57% 29.87 in 10.0 mi NE 9.2 mph - N/A   Clear
5:55 PM 73.4 °F 55.4 °F 53% 29.87 in 10.0 mi NNE 6.9 mph - N/A   Clear
6:15 PM 71.6 °F 59.0 °F 64% 29.87 in 10.0 mi NNW 5.8 mph - N/A   Scattered Clouds
6:35 PM 69.8 °F 60.8 °F 73% 29.87 in 10.0 mi North 4.6 mph - N/A   Scattered Clouds
6:55 PM 69.8 °F 60.8 °F 73% 29.87 in 10.0 mi NW 3.5 mph - N/A   Clear
7:15 PM 68.0 °F 60.8 °F 78% 29.87 in 10.0 mi Calm Calm - N/A   Clear
7:35 PM 64.4 °F 60.8 °F 88% 29.87 in 10.0 mi Calm Calm - N/A   Clear
7:55 PM 64.4 °F 60.8 °F 88% 29.87 in 10.0 mi Calm Calm - N/A   Clear
8:15 PM 64.4 °F 60.8 °F 88% 29.87 in 10.0 mi Calm Calm - N/A   Clear
8:35 PM 64.4 °F 60.8 °F 88% 29.87 in 10.0 mi Calm Calm - N/A   Clear
8:55 PM 62.6 °F 60.8 °F 94% 29.87 in 10.0 mi Calm Calm - N/A   Clear
9:15 PM 62.6 °F 60.8 °F 94% 29.88 in 10.0 mi WNW 4.6 mph - N/A   Clear
9:35 PM 64.4 °F 60.8 °F 88% 29.88 in 10.0 mi NW 3.5 mph - N/A   Clear
9:55 PM 62.6 °F 60.8 °F 94% 29.88 in 10.0 mi NW 3.5 mph - N/A   Clear
10:15 PM 62.6 °F 60.8 °F 94% 29.88 in 10.0 mi NW 6.9 mph - N/A   Clear
10:35 PM 62.6 °F 60.8 °F 94% 29.88 in 10.0 mi NW 5.8 mph - N/A   Clear
10:55 PM 62.6 °F 60.8 °F 94% 29.88 in 10.0 mi NW 4.6 mph - N/A   Clear
11:15 PM 62.6 °F 60.8 °F 94% 29.87 in 10.0 mi WNW 4.6 mph - N/A   Clear
11:35 PM 62.6 °F 59.0 °F 88% 29.87 in 10.0 mi NW 8.1 mph - N/A   Clear
11:55 PM 62.6 °F 59.0 °F 88% 29.87 in 10.0 mi NW 5.8 mph - N/A   Clear